Flag for Germany Weather past 2 weeks in Neuruppin, Brandenburg, Germany

Now
65 °F

Sunny.


Feels Like: 65 °F
Forecast: 50 / 64 °F
Wind: 1 mph from South

Location: Neuruppin

Current Time: May 24, 2015 at 5:58:10 PM

Latest Report: May 24, 2015 at 4:00 PM


Visibility: 6 mi

Pressure: 30.08 "Hg

Humidity: 42%

Dew point: 41 °F

Location of NeuruppinLocation

Historic Weather in Neuruppin — Graph

°F

Neuruppin temperature yesterday

Maximum temperature yesterday: 67 °F (at 12:00 PM)
Minimum temperature yesterday: 53 °F (at 10:00 PM)
Average temperature yesterday: 58 °F

Past Weeks' High & Low Weather Summary

 TemperatureHumidityPressure
High77 °F (May 12, 4:00 PM)99% (May 11, 4:00 AM)30.39 "Hg (May 11, 4:00 AM)
Low38 °F (May 16, 6:00 AM)34% (May 22, 4:00 PM)29.58 "Hg (May 19, 3:00 AM)
Average53 °F70%30.05 "Hg
* Reported May 9 4:00 PM — May 24 4:00 PM, Neuruppin, Weather by CustomWeather, © 2015

Note: Actual official high and low records may vary slightly from our data, if they occured in-between our weather recording intervals... More about our weather records

Advertising

Neuruppin weather history for previous 24 hours

 ConditionsComfort  
Time TempWeatherWind HumidityBarometerVisibility
4:00 PM
Sun, May 24
65 °FSunny.1 mph42%30.08 "Hg6 mi
3:00 PM65 °FSunny.2 mph43%30.10 "Hg6 mi
2:00 PM64 °FSunny.1 mph45%30.12 "Hg6 mi
1:00 PM62 °FSunny.2 mph51%30.13 "Hg6 mi
12:00 PM60 °FPartly sunny.1 mph54%30.14 "Hg6 mi
10:00 AM56 °FScattered clouds.1 mph64%30.16 "Hg7 mi
9:00 AM53 °FScattered clouds.1 mph77%30.16 "Hg6 mi
8:00 AM48 °FSunny.No wind87%30.16 "Hg6 mi
7:00 AM42 °FSunny.No wind97%30.16 "Hg6 mi
6:00 AM38 °FSunny.1 mph97%30.16 "Hg6 mi
5:00 AM38 °FPartly sunny.1 mph96%30.15 "Hg6 mi
4:00 AM39 °FClear.1 mph95%30.15 "Hg2 mi
3:00 AM40 °FClear.1 mph93%30.15 "Hg6 mi
2:00 AM42 °FClear.1 mph93%30.16 "Hg6 mi
1:00 AM43 °FClear.1 mph90%30.15 "Hg5 mi
12:00 AM45 °FClear.1 mph87%30.14 "Hg6 mi
10:00 PM
Sat, May 23
53 °FClear.5 mph67%30.14 "Hg6 mi
9:00 PM55 °FSunny.3 mph63%30.12 "Hg6 mi
8:00 PM57 °FSunny.5 mph65%30.11 "Hg6 mi
7:00 PM59 °FOvercast.6 mph67%30.10 "Hg6 mi
6:00 PM59 °FOvercast.5 mph72%30.10 "Hg6 mi
Weather by CustomWeather, © 2015

See weather overviewHow to use our weather pages